www.pogodaiklimat.ru
Время
и дата
22:53 17.07
23:53 17.07
00:53 18.07
01:53 18.07
02:53 18.07
03:53 18.07
04:53 18.07
05:53 18.07
06:53 18.07
07:53 18.07
08:53 18.07
09:53 18.07
10:53 18.07
11:53 18.07
12:53 18.07
13:53 18.07
14:53 18.07
15:01 18.07
15:48 18.07
15:53 18.07
16:48 18.07
16:53 18.07
17:03 18.07
17:53 18.07
18:53 18.07
19:53 18.07
20:53 18.07
21:53 18.07
22:53 18.07
23:53 18.07
00:53 19.07
01:53 19.07
02:53 19.07
03:53 19.07
04:53 19.07
05:53 19.07
06:53 19.07
07:53 19.07
08:53 19.07
09:53 19.07
10:53 19.07
11:53 19.07
12:53 19.07
13:30 19.07
13:53 19.07
14:05 19.07
14:53 19.07
15:53 19.07
Ветер
(напр.,м/с)
Видим. Явления Облачность Т
(С)
Тd
(С)
f
(%)
Тe
(С)
Тes
(С)
Комфортность P
(гПа)
Po
(гПа)
Тmin
(С)
Tmax
(С)
R
(мм)
R24
(мм)
S
(см)
Ю 6 16 км ясно +15.6 +10.6 72 +14 +14 1019.9 820.0 +14.4 +17.2 0.3
ЮЗ 4 16 км ясно +13.9 +10.0 77 +12 +12 1020.1 819.4
ЮЗ 3 16 км ясно +13.3 +10.0 80 +12 +12 1019.4 819.2
Ю 2 16 км ясно +12.8 +10.0 83 +12 +12 1018.3 818.6
ЮЗ 2 16 км ясно +12.8 +10.0 83 +12 +12 1018.2 818.4
штиль 0 16 км ясно +12.2 +10.0 86 +12 +12 1019.2 818.1
ЮЗ 2 16 км ясно +11.7 +10.0 89 +11 +11 1020.7 818.4 +11.1 +15.6 4.8
З 2 16 км ясно +13.3 +11.1 87 +13 +13 1020.6 818.6
З 2 16 км ясно +16.7 +11.1 70 +17 +18 1019.5 818.4
нст 2 16 км ясно +20.0 +11.7 59 +22 +26 комфорт 1019.1 818.6
штиль 0 16 км ясно +22.8 +12.2 51 +25 +36 комфорт 1018.5 818.4
Ю 3 16 км ясно +25.0 +12.2 45 +27 +37 жарко 1018.0 818.4
нст 2 16 км ясно +26.1 +12.2 42 +28 +43 жарко 1017.8 818.4 +11.7 +26.7
ЮВ 7
{10}
16 км ясно +26.7 +12.2 41 +28 +33 жарко 1017.6 818.1
В 5 16 км ясно +28.3 +9.4 31 +28 +39 жарко 1017.1 817.8
В 4 16 км 2/0 2850 m
[Ac]
+28.9 +10.0 31 +29 +40 жарко 1016.9 817.8
ЮВ 5 16 км 2/0 2850 m
[Ac]
+26.7 +8.9 33 +27 +34 жарко 1016.8 817.3
ЮВ 5 16 км гроза 2/0 2850 m
[Ac]
+26.7 +8.9 33 +27 +32 жарко 817.6
ЮЗ 4 16 км слабый дождь 8/0 2400 m
[Ac As]
+23.0 +13.0 53 +26 +29 жарко 817.0
ЮЗ 3 16 км слабый дождь 8/0 2400 m
[Ac As]
+22.8 +12.8 53 +26 +30 жарко 1017.4 817.0
З 4 16 км гроза ясно +23.0 +13.0 53 +26 +31 жарко 817.6
З 5 16 км гроза 2/0 2850 m
[Ac]
+22.2 +13.3 57 +25 +29 комфорт 1018.1 817.6 +22.2 +29.4
З 4 16 км 8/0 2250 m
[Ac]
+22.2 +13.3 57 +25 +26 комфорт 817.6
В 8
{10}
16 км 8/2 1950 m
[Ac]
+22.8 +10.0 44 +25 +25 комфорт 1017.7 817.6
ЮВ 3 16 км ясно +23.3 +8.9 40 +25 +26 комфорт 1016.1 816.7
Ю 4 16 км ясно +20.0 +10.6 55 +22 +22 комфорт 1016.5 817.0
Ю 4 16 км ясно +20.0 +11.1 57 +22 +22 комфорт 1016.7 817.8
Ю 3 16 км ясно +19.4 +12.8 66 +21 +21 комфорт 1016.2 817.6
ЮЗ 3 16 км ясно +16.7 +12.8 78 +16 +16 1016.3 817.6 +16.7 +25.0
штиль 0 16 км ясно +16.7 +11.7 72 +17 +17 1016.1 817.3
З 3 16 км ясно +15.0 +11.1 77 +14 +14 1015.5 816.7
З 3 16 км ясно +15.0 +10.0 72 +14 +14 1014.9 816.5
З 5 16 км 2/0 3300 m
[Ac]
+15.6 +9.4 67 +14 +14 1015.5 816.7
ЮЗ 3 16 км ясно +15.6 +8.3 62 +15 +15 1016.3 816.7
СЗ 3 16 км ясно +15.6 +8.3 62 +15 +15 1016.4 816.7 +14.4 +18.3
С 5 16 км ясно +19.4 +8.3 49 +20 +20 1015.6 816.7
СЗ 4 16 км 2/0 3600 m
[Ac]
+22.8 +7.8 38 +24 +25 комфорт 1015.4 817.3
СЗ 7
{10}
16 км ясно +25.0 +6.7 31 +25 +26 комфорт 1016.0 817.6
С 6 16 км ясно +26.1 +7.2 30 +26 +29 жарко 1016.1 817.8
СВ 5
{9}
16 км ясно +27.2 +7.2 28 +27 +33 жарко 1016.2 817.8
С 3 16 км ясно +27.8 +7.8 28 +27 +41 жарко 1016.7 817.8 +15.0 +27.8
нст 2
{8}
16 км ясно +28.3 +7.8 27 +28 +46 жарко 1016.0 817.6
С 7
{10}
16 км ясно +28.9 +7.2 25 +28 +33 жарко 1015.5 817.0
С 6
{10}
16 км гроза 2/0 3300 m
[Ac]
+27.8 +6.7 26 +27 +33 жарко 817.0
С 2 16 км гроза 5/0 2700 m
[Ac]
+27.8 +5.6 24 +27 +39 жарко 1015.5 816.7
С 5 16 км 2/0 2700 m
[Ac]
+28.3 +6.7 25 +27 +35 жарко 817.0
16 км 5/0 3000 m
[Ac]
+30.6 +6.7 22 +29 +43 жарко 1014.3 816.5
ЮЗ 7
{12}
16 км 8/0 3000 m
[Ac]
+25.6 +8.9 35 +26 +28 жарко 1015.1 816.2
Местоположение метеостанции Cheyenne Airport: широта 41.1519 долгота -104.8061 высота над уровнем моря 1868 м.
В архиве по умолчанию представлена погода в Шайенне за последние 1-2 суток. Обновление информации о фактической погоде в базе происходит ежечасно! Архивные данные за месяц целиком и за предыдущие месяцы Вы можете получить, выбрав интересующий диапазон дат из раскрывающегося списка и нажав кнопку "Ввод!".
Внимание! Архив погоды МЕТАР в базе сайта по станциям, не включенным в климатический монитор, хранится не более 60 дней. Нет смысла пытаться выбрать более раннюю дату.
*Определитесь, кто Вы:
Внимание! Время в таблицах - местное (без учета летнего времени). Для получения всемирного времени необходимо вычесть поправку, которая равна -7 ч.
Смотрите также архив погоды в соседних городах и на ближайших метеорологических станциях:
Партнеры нашего сайта:      
Пояснения к столбцам:
  • Ветер - указаны скорость ветра в м/с - средняя за 10 мин, порывы в срок и между сроками (в фигурных скобках) и направление, откуда дует ветер: С - северный,
  • СВ - северо-восточный, В - восточный, ЮВ - юго-восточный, Ю - южный, ЮЗ - юго-западный, З - западный, СЗ - северо-западный.
  • Видимость - горизонтальная дальность видимости в метрах или километрах. При видимости от 1 до 10 км при отсутствии осадков обычно наблюдается дымка, при ухудшении видимости до 1 км и менее - туман. В сухую погоду видимость может ухудшаться дымом, пылью или мглою.
  • Явления - указаны атмосферные явления, наблюдавшиеся в срок или в последний час перед сроком; фигурными скобками обозначены явления, наблюдавшиеся между сроками (за 1-3 часа до срока); квадратными скобками обозначены град или гололедные отложения с указанием их диаметра в мм.
  • Облачность - указаны через наклонную черту общая и нижняя облачность в баллах и высота нижней границы облаков в метрах; квадратными скобками обозначены формы облаков: Ci - перистые, Cs - перисто-слоистые, Cc - перисто-кучевые, Ac - высококучевые, As - высокослоистые, Sc - слоисто-кучевые, Ns - слоисто-дождевые, Cu - кучевые, Cb - кучево-дождевые. Подробнее классификацию облаков см. в Атласе облаков (PDF).
  • T - Температура воздуха - температура, измеренная на высоте 2 м над землей.
  • Td - Температура точки росы - температура, при понижении до которой содержащийся в воздухе водяной пар достигнет насыщения.
  • f - Относительная влажность воздуха - влажноcть воздуха, измеренная на высоте 2 м над землей.
  • Te - Эффективная температура - температура, которую ощущает одетый по сезону человек в тени. Характеристика душности погоды. При расчете учитывается влияние влажности воздуха и скорости ветра на теплоощущения человека.
  • Tes - Эффективная температура на солнце - температура, которую ощущает человек, с поправкой на солнечный нагрев. Характеристика знойности погоды. Зависит от высоты солнца над горизонтом, облачности и скорости ветра. Ночью, в пасмурную погоду, а также при ветре 12 м/с и более поправка равна нулю.
  • P - Атмосферное давление - приведенное к уровню моря атмосферное давление.
  • Po - Атмосферное давление - измеренное на уровне метеостанции атмосферное давление.
  • Tmin - Минимальная температура - минимум температуры воздуха на высоте 2 м над землей.
  • Tmax - Максимальная температура - максимум температуры воздуха на высоте 2 м над землей.
  • R - Количество осадков - Количество выпавших осадков за период времени, мм. При наведении курсора мыши на число - период времени, за который выпало указанное количество осадков.
  • R24 - Количество осадков - Количество выпавших осадков за 24 часа, мм.
  • S - Снежный покров - Высота снежного покрова, см. При наведении курсора мыши на число - состояние снежного покрова и степень покрытия местности в баллах.